Weather History for Millinocket, ME

Change the Weather History Date:

Thursday, January 17, 2013

  Actual Average Record
Temperature  
Mean Temperature 18 °F 13 °F  
Max Temperature 34 °F 23 °F 52 °F (1995)
Min Temperature 2 °F 3 °F -32 °F (1907)
Degree Days  
Heating Degree Days 47 52  
Month to date heating degree days 756 858  
Since 1 July heating degree days 3630 4023  
Cooling Degree Days 0 0  
Month to date cooling degree days 0 0  
Year to date cooling degree days 0 0  
Moisture  
Dew Point 16 °F    
Average Humidity 61    
Maximum Humidity 92    
Minimum Humidity 30    
Precipitation  
Precipitation 0.01 in 0.08 in 1.08 in (1959)
Month to date precipitation 0.19 1.78  
Year to date precipitation 0.19 1.78  
Sea Level Pressure  
Sea Level Pressure 29.84 in    
Wind  
Wind Speed 7 mph (WNW)    
Max Wind Speed 24 mph    
Max Gust Speed 38 mph    
Visibility 7 miles    
Events Snow    
T = Trace of Precipitation, MM = Missing Value Source: NWS Daily Summary

Daily Weather History Graph

Daily Weather History Graph

Search for Another Location

Airport:

Trip Planner

Search our weather history database for the weather conditions in past years. The results will help you decide how hot, cold, wet, or windy it might be!

Date:

Astronomy

Jan. 17, 2013 Rise Set
Actual Time 7:10 AM EST 4:20 PM EST
Civil Twilight 6:37 AM EST 4:53 PM EST
Nautical Twilight 6:00 AM EST 5:29 PM EST
Astronomical Twilight 5:25 AM EST 6:05 PM EST
Moon 9:53 AM EST (1/17) 11:32 PM EST (1/17)
Length of Visible Light 10h 16m
Length of Day
9h 10m
Waxing Crescent, 37% of the Moon is Illuminated
Jan 17
Waxing Crescent
Jan 18
First Quarter
Jan 26
Full
Feb 3
Last Quarter
Feb 10
New

Hourly Weather History & Observations

Time (EST) Temp. Windchill Dew Point Humidity Pressure Visibility Wind Dir Wind Speed Gust Speed Precip Events Conditions
12:07 AM 26.6 °F - 26.6 °F 100% 29.72 in 2.0 mi Calm Calm - 0.00 in Snow Light Snow
12:39 AM 28.4 °F - 26.6 °F 93% 29.71 in 1.8 mi Calm Calm - 0.00 in Snow Light Snow
12:43 AM 28.4 °F - 26.6 °F 93% 29.71 in 2.0 mi Calm Calm - 0.01 in Snow Light Snow
12:53 AM 28.9 °F - 27.0 °F 92% 29.74 in 2.5 mi Calm Calm - 0.01 in Snow Light Snow
1:00 AM 28.4 °F 24.6 °F 26.6 °F 93% 29.71 in 2.5 mi NW 3.5 mph - 0.00 in Snow Light Snow
1:09 AM 28.4 °F - 26.6 °F 93% 29.70 in 2.0 mi Calm Calm - 0.00 in Snow Light Snow
1:17 AM 28.4 °F - 26.6 °F 93% 29.70 in 3.0 mi Calm Calm - 0.00 in Snow Light Snow
1:25 AM 28.4 °F - 26.6 °F 93% 29.70 in 4.0 mi Calm Calm - 0.00 in   Overcast
1:32 AM 28.4 °F - 26.6 °F 93% 29.70 in 5.0 mi Calm Calm - 0.00 in   Overcast
1:43 AM 28.4 °F - 26.6 °F 93% 29.71 in 6.0 mi Calm Calm - 0.00 in   Overcast
1:53 AM 28.9 °F 25.2 °F 27.0 °F 92% 29.74 in 8.0 mi West 3.5 mph - 0.00 in   Overcast
2:09 AM 30.2 °F - 26.6 °F 86% 29.71 in 10.0 mi Calm Calm - N/A   Overcast
2:53 AM 28.9 °F - 27.0 °F 92% 29.73 in 10.0 mi Calm Calm - N/A   Overcast
3:53 AM 28.0 °F - 25.0 °F 88% 29.72 in 10.0 mi Calm Calm - N/A   Overcast
4:53 AM 26.1 °F - 23.0 °F 88% 29.71 in 10.0 mi Calm Calm - N/A   Mostly Cloudy
5:53 AM 28.0 °F - 24.1 °F 85% 29.70 in 10.0 mi Calm Calm - N/A   Overcast
7:53 AM 28.9 °F - 25.0 °F 85% 29.75 in 10.0 mi Calm Calm - N/A   Overcast
8:53 AM 28.9 °F - 24.1 °F 82% 29.76 in 10.0 mi Calm Calm - N/A   Overcast
9:53 AM 30.9 °F 27.5 °F 26.1 °F 82% 29.77 in 8.0 mi Variable 3.5 mph - N/A   Mostly Cloudy
10:53 AM 33.1 °F 26.9 °F 27.0 °F 78% 29.78 in 7.0 mi Variable 6.9 mph - 0.00 in Snow Light Snow
11:01 AM 33.8 °F 27.7 °F 28.4 °F 81% 29.75 in 2.0 mi WSW 6.9 mph - 0.00 in Snow Light Snow
11:04 AM 33.8 °F 28.6 °F 28.4 °F 81% 29.75 in 1.2 mi Variable 5.8 mph - 0.00 in Snow Light Snow
11:09 AM 33.8 °F 27.0 °F 28.4 °F 81% 29.75 in 1.5 mi WSW 8.1 mph - 0.00 in Snow Light Snow
11:14 AM 33.8 °F 26.4 °F 28.4 °F 81% 29.75 in 3.0 mi WSW 9.2 mph - 0.00 in Snow Light Snow
11:27 AM 32.0 °F 23.6 °F 26.6 °F 80% 29.77 in 2.0 mi WNW 10.4 mph 19.6 mph 0.00 in Snow Light Snow
11:31 AM 32.0 °F 22.5 °F 24.8 °F 75% 29.77 in 5.0 mi WNW 12.7 mph 24.2 mph 0.00 in Snow Light Snow
11:53 AM 30.9 °F 19.4 °F 23.0 °F 72% 29.82 in 7.0 mi WNW 17.3 mph 25.3 mph 0.00 in   Scattered Clouds
12:53 PM 28.9 °F 17.3 °F 10.9 °F 47% 29.86 in 8.0 mi West 16.1 mph 32.2 mph 0.00 in   Clear
1:53 PM 26.1 °F 14.5 °F 1.9 °F 35% 29.90 in 9.0 mi West 13.8 mph 23.0 mph 0.00 in   Clear
2:53 PM 21.9 °F 8.2 °F -5.1 °F 30% 29.95 in 10.0 mi WNW 16.1 mph 24.2 mph N/A   Clear
3:53 PM 18.0 °F 6.9 °F -9.0 °F 30% 30.01 in 10.0 mi WNW 9.2 mph 19.6 mph N/A   Clear
4:53 PM 14.0 °F -1.4 °F -7.1 °F 39% 30.06 in 10.0 mi WNW 15.0 mph 25.3 mph N/A   Clear
5:53 PM 10.9 °F -1.8 °F -7.1 °F 44% 30.10 in 10.0 mi NW 9.2 mph - N/A   Clear
6:53 PM 8.1 °F -9.0 °F -9.0 °F 46% 30.13 in 10.0 mi WNW 15.0 mph 23.0 mph N/A   Clear
7:53 PM 7.0 °F -6.6 °F -9.9 °F 46% 30.15 in 10.0 mi WNW 9.2 mph 20.7 mph N/A   Clear
8:53 PM 5.0 °F -13.0 °F -9.9 °F 50% 30.17 in 10.0 mi WNW 15.0 mph 19.6 mph N/A   Clear
9:53 PM 3.9 °F -10.4 °F -11.9 °F 48% 30.16 in 10.0 mi WNW 9.2 mph - N/A   Clear
10:53 PM 3.0 °F -10.5 °F -11.9 °F 50% 30.15 in 10.0 mi NW 8.1 mph - N/A   Clear
11:53 PM 1.9 °F - -11.9 °F 52% 30.17 in 9.0 mi Calm Calm - N/A   Clear